Regional Weather Roundup
Issued by NWS

Home | Current Version | Previous Version | Graphics & Text | Print | Product List | Glossary Off
Versions: 1 2 3 4 5 6 7 8 9 10 11 12 13 14 15 16 17 18 19 20 21 22 23 24 25 26 27 28 29 30 31 32 33 34 35 36 37 38 39 40 41 42 43 44 45 46 47 48 49 50

000
ASUS43 KMPX 020701
RWRMN
WEATHER ROUNDUP FOR MINNESOTA
NATIONAL WEATHER SERVICE TWIN CITIES/CHANHASSEN MN
200 AM CDT THU APR 02 2015


NOTE: "FAIR" INDICATES FEW OR NO CLOUDS BELOW 12,000 FEET WITH NO
SIGNIFICANT WEATHER AND/OR OBSTRUCTIONS TO VISIBILITY. N/A MEANS
CURRENT SKY AND/OR WEATHER CONDITIONS ARE NOT AVAILABLE.

MNZ060>063-068>070-020800-
   Twin Cities Metro

CITY           SKY/WX    TMP DP  RH WIND       PRES   REMARKS
TWIN CITIES    CLOUDY    55  44  66 W17       29.65R
ST PAUL        CLOUDY    56  43  61 W15G24    29.65R
CRYSTAL        CLOUDY    55  39  54 NW13G21   29.65R
BLAINE         CLOUDY    55  41  58 W18G24    29.64R
LAKEVILLE      CLOUDY    54  46  76 W9        29.65S
EDEN PRAIRIE   CLOUDY    55  42  61 NW14      29.66R
SOUTH ST PAUL  CLOUDY    56  47  72 W8        29.65R
LAKE ELMO      FAIR      54  45  71 W12       29.64R
$$
MNZ001>005-007-008-013>017-022>024-027-028-020800-
   Northwest Minnesota

CITY           SKY/WX    TMP DP  RH WIND       PRES   REMARKS
BEMIDJI        FAIR      41  35  80 W10       29.60R
HALLOCK        CLEAR     36  30  80 W8        29.52F
ROSEAU         CLEAR     39  36  87 SW7       29.50F
WARROAD        CLEAR     39  36  87 W8        29.49F
THIEF RVR FALL PTCLDY    41  32  70 SW7       29.59R
CROOKSTON      PTCLDY    37  30  75 SW9       29.62R
FOSSTON        CLEAR     34  30  86 SW6       29.63R WCI  29
DETROIT LAKES  CLEAR     41  34  75 W6        29.68R
MOORHEAD       PTCLDY    43  30  61 SW8       29.69R
PARK RAPIDS    CLEAR     42  34  73 W9        29.64R
MAHNOMEN       FAIR      37  32  80 W9        29.63R
$$
MNZ006-009>011-018-025>026-020800-
   North Central Minnesota

CITY           SKY/WX    TMP DP  RH WIND       PRES   REMARKS
BAUDETTE       CLEAR     41  34  76 W12       29.49S
FLAG ISLAND    CLEAR     41  36  81 W14       29.45S
INTL FALLS     MOCLDY    46  37  71 W13       29.47R
WASKISH        CLEAR     37  34  87 SW12      29.56R
BIG FORK       CLEAR     46  36  66 W8        29.55R
LONGVILLE      PTCLDY    45  36  70 W8        29.62R
GRAND RAPIDS   PTCLDY    46  36  66 W13G18    29.58R
ORR            MOCLDY    46  37  71 W9        29.47R
COOK           CLOUDY    48  39  71 W15G26    29.50R
WALKER         FAIR      45  35  69 W9G16     29.59R
$$
MNZ012-019>021-037-020800-
   Northeast Minnesota

CITY           SKY/WX    TMP DP  RH WIND       PRES   REMARKS
DULUTH         CLOUDY    52  41  66 W13       29.54R
ELY            MOCLDY    45  37  76 W7        29.47R
HIBBING        PTCLDY    48  37  65 W13G23    29.54R
EVELETH        CLOUDY    50  41  71 W9        29.53R
DULUTH HARBOR  CLOUDY    43  37  81 SW13      29.53R
TWO HARBORS    CLOUDY    52  43  71 W13G18    29.49R
SILVER BAY     CLOUDY    48  39  71 W6        29.46R
GRAND MARAIS     N/A     35  32  88 W3        29.43R
G MARAIS ARPRT CLOUDY    41  34  75 SW6       29.41S
$$
MNZ029>031-032-039>041-046>048-054>057-064-020800-
   West Central Minnesota

CITY           SKY/WX    TMP DP  RH WIND       PRES   REMARKS
FERGUS FALLS   PTCLDY    37  28  70 S5        29.72R
WHEATON        MOCLDY    39  30  70 SW6       29.74R
MORRIS         CLOUDY    39  34  81 W5        29.71S
ALEXANDRIA     MOCLDY    44  33  65 NW8       29.70R
ELBOW LAKE     FAIR      39  33  77 W5        29.70S
WADENA         CLEAR     39  32  75 W7        29.67R
GLENWOOD       MOCLDY    45  34  65 W9        29.70S
APPLETON       CLOUDY    43  34  70 W6        29.73R
BENSON         CLOUDY    39  34  81 NW3       29.71F
ORTONVILLE     CLOUDY    46  28  49 W5        29.73S
MADISON        CLOUDY    45  30  57 W7        29.74R
WILLMAR        FAIR      48  36  61 NW6       29.72S
$$
MNZ033>034-036-042>043-049>051-058-059-020800-
   Central Minnesota

CITY           SKY/WX    TMP DP  RH WIND       PRES   REMARKS
ST CLOUD       CLOUDY    48  34  58 NW12      29.66R
SAUK CENTRE    FAIR      44  34  69 NW7       29.69R
PAYNESVILLE    CLOUDY    42  33  71 SW5       29.70S
AITKIN         PTCLDY    52  39  62 W6        29.61R
PINE RIVER     PTCLDY    45  36  70 W3        29.68R
BRAINERD       PTCLDY    46  35  65 W8        29.65R
STAPLES        PTCLDY    39  34  81 W7        29.67R
LONG PRAIRIE   FAIR      45  34  65 W6        29.68S
LITTLE FALLS   MOCLDY    46  32  57 W8        29.66S
LITCHFIELD     CLOUDY    50  39  66 CALM      29.69F
MAPLE LAKE     CLOUDY    51  37  58 NW9       29.69R
$$
MNZ037-044-045-052-053-020800-
   East Central Minnesota

CITY           SKY/WX    TMP DP  RH WIND       PRES   REMARKS
PRINCETON      CLOUDY    52  37  58 W9        29.65R
MORA           CLOUDY    50  36  57 W8G16     29.64R
CAMBRIDGE      CLOUDY    55  39  54 W13G21    29.61R
RUSH CITY      CLOUDY    51  42  69 W12G17    29.60R
MOOSE LAKE     MOCLDY    52  41  66 W10       29.57R
HINCKLEY       FAIR      52  43  71 W12G22    29.60R
CLOQUET        CLOUDY    52  41  66 W12G21    29.56R
MCGREGOR       CLOUDY    50  37  62 W15G22    29.61R
$$
MNZ071>073-080-081-089-090-097-098-020800-
   Southwest Minnesota

CITY           SKY/WX    TMP DP  RH WIND       PRES   REMARKS
MONTEVIDEO     CLOUDY    48  34  57 NW5       29.74R
GRANITE FALLS  CLOUDY    44  33  64 W7        29.75R
CANBY          CLOUDY    47  30  51 W9        29.75S
MARSHALL       CLOUDY    48  28  46 NW12      29.75S
REDWOOD FALLS  CLOUDY    52  37  56 NW9       29.72S
OLIVIA         CLOUDY    45  36  70 NW5       29.71S
PIPESTONE      CLOUDY    50  30  46 N6        29.76S
WORTHINGTON    CLOUDY    48  37  66 NW13      29.76R
JACKSON        CLOUDY    54  36  50 NW15G25   29.73S
TRACY          CLOUDY    52  33  47 NW10      29.75R
SLAYTON        CLOUDY    49  31  48 NW9       29.75S
$$
MNZ065>067-074>077-082>085-091>093-020800-
   South Central Minnesota

CITY           SKY/WX    TMP DP  RH WIND       PRES   REMARKS
MANKATO        CLOUDY    54  39  58 NW14      29.69R
NEW ULM        CLOUDY    52  37  58 NW13      29.71R
ST JAMES       CLOUDY    52  39  62 NW15      29.72R
FAIRMONT       CLOUDY    54  34  47 NW16      29.70R
GLENCOE        CLOUDY    53  42  65 NW15      29.68R
FARIBAULT      CLOUDY    54  52  94 W7        29.67S
OWATONNA       LGT RAIN  54  52  94 S8        29.67R
WASECA         CLOUDY    52  50  93 SW6       29.68F
ALBERT LEA     LGT RAIN  55  55 100 W5        29.66F
$$
MNZ078>079-086>088-094>096-020800-
   Southeast Minnesota

CITY           SKY/WX    TMP DP  RH WIND       PRES   REMARKS
ROCHESTER      LGT RAIN  54  53  97 SW10      29.67F FOG
RED WING       LGT RAIN  55  54  94 W6        29.63R
DODGE CENTER   DRIZZLE   54  54 100 SW9       29.66F
WINONA         CLOUDY    54  54 100 CALM      29.63S
AUSTIN         LGT RAIN  54  54 100 N5        29.65F
PRESTON        CLOUDY    54  52  94 SW8       29.66F
$$
ABBREVIATIONS USED IN REMARKS
   TC - TEMPERATURES IN CELSIUS
  WCI - WIND CHILL INDEX
   HX - HEAT INDEX
  VSB - VISIBILITY
$$



USA.gov is the U.S. government's official web portal to all federal, state and local government web resources and services.